ZF1RC George Town KY current weather conditions

sailwx.info

Wind from 003 at 0 knots gusting 5

Air temperature 26.1° C
Dewpoint 23.2° C

Last reported at 2014-Oct-25 21:50 UTC.
Time now 2014-Oct-25 22:51 UTC

Location: N 19°16' W 081°23'.
View on Google Maps.

See reports from other nearby stations

  
Tides and Currents Weather Stations Pressure Air Temp Water Temp Dewpoint Dewpoint Depression Visibility Wind Speed Wind Dir Waves Ship Positions
date/time (UTC)wind fromknots sea level pressurealtimeterstation pressurevisibilityair tempwater tempwave heightnotes
2014-Oct-25 21:50 003 0 gusting 5 26.1
2014-Oct-25 21:40 005 2 gusting 2 26.1
2014-Oct-25 21:30 126 6 gusting 6 26.1
2014-Oct-25 21:20 345 1 gusting 4 26.1
2014-Oct-25 21:10 330 1 gusting 4 26.1
2014-Oct-25 21:00 351 2 gusting 4 26.1
2014-Oct-25 20:50 015 4 gusting 6 26.1
2014-Oct-25 20:40 354 1 gusting 4 26.7
2014-Oct-25 20:30 340 1 gusting 4 26.7
2014-Oct-25 20:20 318 0 gusting 2 27.2
2014-Oct-25 20:10 295 0 gusting 6 26.7
2014-Oct-25 20:00 296 4 gusting 4 26.7
2014-Oct-25 19:50 282 1 gusting 4 26.7
2014-Oct-25 19:40 293 2 gusting 4 26.7
2014-Oct-25 19:30 294 1 gusting 1 26.7
2014-Oct-25 19:20 271 1 gusting 2 26.7
2014-Oct-25 19:10 235 1 gusting 2 26.7
2014-Oct-25 19:00 228 3 gusting 5 26.7
2014-Oct-25 18:50 265 2 gusting 6 26.7
2014-Oct-25 18:40 231 4 gusting 5 26.7
2014-Oct-25 18:30 244 4 gusting 6 26.7
2014-Oct-25 18:20 259 26.7
2014-Oct-25 18:10 240 4 gusting 5 26.7
2014-Oct-25 18:00 204 2 gusting 5 26.7
2014-Oct-25 17:50 222 3 gusting 5 26.7
2014-Oct-25 17:40 230 2 gusting 5 26.7
2014-Oct-25 17:30 211 4 gusting 6 26.7
2014-Oct-25 17:20 198 4 gusting 5 26.7
2014-Oct-25 17:10 199 1 gusting 4 26.7
2014-Oct-25 17:00 240 4 gusting 6 26.1
2014-Oct-25 16:50 205 4 gusting 6 26.7
2014-Oct-25 16:40 198 1 gusting 2 26.7
2014-Oct-25 16:30 209 0 gusting 5 26.7
2014-Oct-25 16:20 245 2 gusting 2 26.7
2014-Oct-25 16:10 238 26.7
2014-Oct-25 16:00 208 0 gusting 0 26.7
2014-Oct-25 15:50 208 0 gusting 1 26.7
2014-Oct-25 15:40 195 2 gusting 4 26.7
2014-Oct-25 15:30 245 1 gusting 2 26.7
2014-Oct-25 15:20 256 0 gusting 2 26.7
2014-Oct-25 15:10 197 2 gusting 2 26.7
2014-Oct-25 15:00 211 0 gusting 1 26.7
2014-Oct-25 14:50 225 1 gusting 1 26.7
2014-Oct-25 14:40 207 0 gusting 0 26.7
2014-Oct-25 14:30 205 0 gusting 1 26.7
2014-Oct-25 14:20 229 1 gusting 2 26.7
2014-Oct-25 14:10 202 1 gusting 1 26.7
2014-Oct-25 14:00 229 0 gusting 2 26.7
2014-Oct-25 13:50 167 0 gusting 1 26.7
2014-Oct-25 13:40 212 0 gusting 1 26.7
2014-Oct-25 13:30 214 0 gusting 1 27.2
2014-Oct-25 13:20 170 26.7
2014-Oct-25 13:10 225 0 gusting 1 26.1
2014-Oct-25 13:00 174 0 gusting 0 25.6
2014-Oct-25 12:50 159 1 gusting 1 25.6
2014-Oct-25 12:40 206 0 gusting 2 25.0
2014-Oct-25 12:30 189 1 gusting 2 25.0
2014-Oct-25 12:20 168 0 gusting 1 24.4
2014-Oct-25 12:10 191 2 gusting 4 24.4
2014-Oct-25 12:00 189 2 gusting 2 23.9
2014-Oct-25 11:50 191 1 gusting 1 23.9
2014-Oct-25 11:40 219 0 gusting 0 23.9
2014-Oct-25 11:30 207 0 gusting 0 23.9
2014-Oct-25 11:20 279 23.9
2014-Oct-25 11:10 277 23.9
2014-Oct-25 11:00 145 23.9
2014-Oct-25 10:50 053 23.9
2014-Oct-25 10:40 053 23.3
2014-Oct-25 10:30 183 23.9
2014-Oct-25 10:20 126 23.9
2014-Oct-25 10:10 166 23.9
2014-Oct-25 10:00 053 23.9
2014-Oct-25 09:50 043 23.9
2014-Oct-25 09:40 039 23.9
2014-Oct-25 09:30 039 23.9
2014-Oct-25 09:20 078 23.9
2014-Oct-25 09:10 231 23.9
2014-Oct-25 09:00 231 23.9
2014-Oct-25 08:50 231 23.9
2014-Oct-25 08:40 175 23.9
2014-Oct-25 08:30 177 23.9
2014-Oct-25 08:20 174 0 gusting 0 23.9
2014-Oct-25 08:10 085 23.9
2014-Oct-25 08:00 079 23.9
2014-Oct-25 07:50 347 1 gusting 2 23.9
2014-Oct-25 07:40 353 0 gusting 2 23.9
2014-Oct-25 07:30 334 2 gusting 2 23.9
2014-Oct-25 07:20 315 1 gusting 4 23.9
2014-Oct-25 07:10 019 2 gusting 2 23.3
2014-Oct-25 07:00 351 2 gusting 2 23.3
2014-Oct-25 06:50 335 1 gusting 2 23.3
2014-Oct-25 06:40 331 2 gusting 4 23.3
2014-Oct-25 06:30 304 2 gusting 4 23.9
2014-Oct-25 06:20 298 4 gusting 5 23.9
2014-Oct-25 06:10 267 0 gusting 4 24.4
2014-Oct-25 06:00 286 4 gusting 5 24.4
2014-Oct-25 05:50 285 1 gusting 2 24.4
2014-Oct-25 05:40 146 1 gusting 2 23.9
2014-Oct-25 05:30 224 1 gusting 1 23.9
2014-Oct-25 05:20 188 2 gusting 5 23.9
2014-Oct-25 05:00 172 5 gusting 6 23.9
2014-Oct-25 04:40 183 5 gusting 6 23.3
2014-Oct-25 04:30 182 2 gusting 2 23.3
2014-Oct-25 04:20 321 2 gusting 4 23.3
2014-Oct-25 04:10 331 1 gusting 4 23.3
2014-Oct-25 04:00 315 0 gusting 2 22.8
2014-Oct-25 03:50 019 2 gusting 4 22.8
2014-Oct-25 03:40 22.8
2014-Oct-25 03:30 325 4 gusting 6 23.3
2014-Oct-25 03:20 001 5 gusting 6 24.4
2014-Oct-25 03:10 187 2 gusting 7 25.0
2014-Oct-25 03:00 209 6 gusting 8 25.0
2014-Oct-25 02:50 188 5 gusting 7 25.0
2014-Oct-25 02:40 198 4 gusting 8 25.0
2014-Oct-25 02:30 193 10 gusting 13 25.0
2014-Oct-25 02:20 196 6 gusting 8 25.0
2014-Oct-25 02:10 202 5 gusting 6 25.0
2014-Oct-25 02:00 220 2 gusting 6 25.0
2014-Oct-25 01:50 222 2 gusting 7 25.0
2014-Oct-25 01:40 232 6 gusting 11 25.0
2014-Oct-25 01:30 280 5 gusting 7 25.0
2014-Oct-25 01:20 261 4 gusting 7 25.0
2014-Oct-25 01:10 318 4 gusting 7 25.0
2014-Oct-25 01:00 239 11 gusting 11 25.0
2014-Oct-25 00:50 272 8 gusting 14 25.0
2014-Oct-25 00:40 279 7 gusting 13 25.6
2014-Oct-25 00:30 264 6 gusting 13 26.1
2014-Oct-25 00:20 229 9 gusting 19 27.2
2014-Oct-25 00:10 232 6 gusting 8 28.3
2014-Oct-25 00:00 205 5 gusting 10 28.3
2014-Oct-24 23:50 185 6 gusting 8 28.3
2014-Oct-24 23:40 230 6 gusting 8 27.8
2014-Oct-24 23:30 196 6 gusting 8 27.8
2014-Oct-24 23:20 189 5 gusting 8 27.8
2014-Oct-24 23:10 204 5 gusting 7 28.3
2014-Oct-24 23:00 168 6 gusting 11 28.3
2014-Oct-24 22:54 202 6 gusting 6 27.8
2014-Oct-24 22:50 184 4 gusting 11 27.8
2014-Oct-24 22:40 209 5 gusting 8 27.8
2014-Oct-24 22:30 187 7 gusting 10 27.8
2014-Oct-24 22:20 194 4 gusting 8 27.8
2014-Oct-24 22:10 216 6 gusting 6 27.8
2014-Oct-24 22:00 196 4 gusting 8 27.8
2014-Oct-24 21:50 238 4 gusting 11 27.8
2014-Oct-24 21:40 194 6 gusting 8 27.8
2014-Oct-24 21:30 191 5 gusting 11 28.3
2014-Oct-24 21:20 169 5 gusting 7 28.3
2014-Oct-24 21:10 216 8 gusting 10 27.8
2014-Oct-24 21:00 191 6 gusting 8 27.8
2014-Oct-24 20:50 185 7 gusting 13 27.8
2014-Oct-24 20:40 226 5 gusting 6 27.8
2014-Oct-24 20:30 231 6 gusting 11 27.8
2014-Oct-24 20:20 272 7 gusting 11 27.8
2014-Oct-24 20:10 181 8 gusting 8 27.8
2014-Oct-24 20:00 197 6 gusting 11 27.8
2014-Oct-24 19:50 203 6 gusting 11 27.8
2014-Oct-24 19:40 142 6 gusting 12 27.8
2014-Oct-24 19:30 228 7 gusting 11 27.8
2014-Oct-24 19:20 222 7 gusting 11 28.3
2014-Oct-24 19:10 189 9 gusting 10 28.3
2014-Oct-24 19:00 203 9 gusting 12 28.3
2014-Oct-24 18:50 216 8 gusting 11 28.3
2014-Oct-24 18:40 194 10 gusting 12 28.3
2014-Oct-24 18:30 187 7 gusting 8 28.3
2014-Oct-24 18:20 187 6 gusting 10 28.9
2014-Oct-24 18:10 185 6 gusting 10 28.9
2014-Oct-24 18:00 201 4 gusting 8 28.9
2014-Oct-24 17:50 226 7 gusting 11 29.4
2014-Oct-24 17:40 169 10 gusting 13 29.4
2014-Oct-24 17:30 191 7 gusting 8 29.4
2014-Oct-24 17:20 199 7 gusting 8 30.0
2014-Oct-24 17:10 172 7 gusting 8 30.0
2014-Oct-24 16:30 193 7 gusting 7 29.4
2014-Oct-24 16:20 235 6 gusting 10 29.4
2014-Oct-24 16:10 180 7 gusting 11 28.9
2014-Oct-24 16:00 168 5 gusting 10 28.9
2014-Oct-24 15:50 205 6 gusting 10 28.9
2014-Oct-24 15:40 173 2 gusting 13 29.4
2014-Oct-24 15:30 187 4 gusting 13 28.9
2014-Oct-24 15:20 191 6 gusting 8 28.9
2014-Oct-24 15:15 174 2 28.9
2014-Oct-24 14:30 206 6 gusting 10 28.9
2014-Oct-24 14:20 179 6 gusting 12 28.9
2014-Oct-24 14:10 204 7 gusting 12 28.9
2014-Oct-24 14:00 184 6 gusting 13 28.3
2014-Oct-24 13:50 196 6 gusting 8 28.3
2014-Oct-24 13:40 162 6 gusting 8 28.9
2014-Oct-24 13:30 218 5 gusting 6 28.9
2014-Oct-24 13:10 170 5 gusting 6 28.3
2014-Oct-24 13:00 179 5 gusting 6 28.3
2014-Oct-24 12:50 201 4 gusting 7 28.3
2014-Oct-24 12:40 173 4 gusting 6 28.3
2014-Oct-24 12:30 175 5 gusting 7 27.8
2014-Oct-24 12:20 177 4 gusting 7 28.3
2014-Oct-24 12:10 179 5 gusting 10 27.8
2014-Oct-24 12:00 209 6 gusting 7 27.8
2014-Oct-24 11:50 158 8 gusting 13 27.2
2014-Oct-24 11:40 148 5 gusting 11 27.2
2014-Oct-24 11:30 191 6 gusting 12 27.8
2014-Oct-24 11:20 188 6 gusting 11 27.8
2014-Oct-24 11:10 173 5 gusting 7 27.8
2014-Oct-24 11:00 197 6 gusting 6 27.8
2014-Oct-24 10:50 180 4 gusting 7 27.8
2014-Oct-24 10:40 189 5 gusting 6 27.8
2014-Oct-24 10:30 189 5 gusting 8 27.8
2014-Oct-24 10:20 185 6 gusting 8 27.8
2014-Oct-24 10:10 210 6 gusting 6 27.8
2014-Oct-24 10:00 228 6 gusting 7 27.8
2014-Oct-24 09:50 193 6 gusting 7 27.8
2014-Oct-24 09:40 188 6 gusting 8 27.8
2014-Oct-24 09:30 175 6 gusting 8 27.8
2014-Oct-24 09:20 221 6 gusting 7 27.8
2014-Oct-24 09:10 187 6 gusting 8 27.8
2014-Oct-24 09:00 174 5 gusting 7 27.8
2014-Oct-24 08:50 201 8 gusting 10 27.8
2014-Oct-24 08:40 132 3 gusting 7 27.8
2014-Oct-24 08:30 188 4 gusting 10 27.8
2014-Oct-24 08:20 192 6 gusting 7 27.8
2014-Oct-24 08:10 167 5 gusting 10 27.8
2014-Oct-24 08:00 196 8 gusting 8 27.8
2014-Oct-24 07:50 184 2 gusting 7 27.8
2014-Oct-24 07:40 222 4 gusting 6 27.8
2014-Oct-24 07:30 177 4 gusting 6 27.8
2014-Oct-24 07:20 179 4 gusting 5 27.2
2014-Oct-24 07:10 176 1 gusting 4 26.7
2014-Oct-24 07:00 168 1 gusting 2 26.1
2014-Oct-24 06:50 177 0 gusting 0 25.6
2014-Oct-24 06:40 171 25.6
2014-Oct-24 06:30 027 1 gusting 1 25.6
2014-Oct-24 06:20 052 0 gusting 1 25.6
2014-Oct-24 06:10 095 0 gusting 2 25.6
2014-Oct-24 06:00 049 2 gusting 4 25.6
2014-Oct-24 05:50 056 0 gusting 2 25.0
2014-Oct-24 05:40 084 0 gusting 1 25.6
2014-Oct-24 05:30 071 0 gusting 2 25.6
2014-Oct-24 05:20 109 1 gusting 1 25.6
2014-Oct-24 05:10 128 0 gusting 1 25.6
2014-Oct-24 05:00 099 1 gusting 2 25.6
2014-Oct-24 04:50 037 0 gusting 1 26.1
2014-Oct-24 04:40 035 25.6
2014-Oct-24 04:30 057 0 gusting 4 25.6
2014-Oct-24 04:20 036 2 gusting 5 25.6
2014-Oct-24 04:10 065 4 gusting 5 25.6
2014-Oct-24 04:00 011 3 gusting 4 25.6
2014-Oct-24 03:50 081 4 gusting 7 25.6
2014-Oct-24 03:40 025 4 gusting 6 25.6
2014-Oct-24 03:30 034 1 gusting 2 26.7
2014-Oct-24 03:20 153 0 gusting 1 27.8
2014-Oct-24 03:10 176 1 gusting 2 27.8
2014-Oct-24 03:00 163 2 gusting 2 27.8
2014-Oct-24 02:50 188 2 gusting 6 27.8
2014-Oct-24 02:40 203 2 gusting 6 27.8
2014-Oct-24 02:30 191 4 gusting 6 27.8
2014-Oct-24 02:20 176 5 gusting 6 27.8
2014-Oct-24 02:10 184 3 gusting 6 27.8
2014-Oct-24 02:00 206 3 gusting 6 27.8
2014-Oct-24 01:50 181 3 gusting 7 27.8
2014-Oct-24 01:40 192 6 gusting 7 27.8
2014-Oct-24 01:30 180 5 gusting 7 27.8
2014-Oct-24 01:20 182 5 gusting 7 27.8
2014-Oct-24 01:10 182 7 gusting 7 27.8
2014-Oct-24 01:00 161 4 gusting 6 27.8
2014-Oct-24 00:50 186 4 gusting 7 27.8
2014-Oct-24 00:40 188 7 gusting 7 27.8
2014-Oct-24 00:30 198 5 gusting 8 27.8
2014-Oct-24 00:20 175 6 gusting 6 27.8
2014-Oct-24 00:10 189 4 gusting 6 27.8
2014-Oct-24 00:00 207 4 gusting 8 27.8
2014-Oct-23 23:50 245 5 gusting 7 27.8
2014-Oct-23 23:40 207 2 gusting 6 27.8
2014-Oct-23 23:30 204 6 gusting 7 27.8
2014-Oct-23 23:20 217 4 gusting 8 27.8
2014-Oct-23 23:10 192 8 gusting 12 27.8
2014-Oct-23 23:00 183 6 gusting 6 27.8
2014-Oct-23 22:54 201 6 gusting 6 27.8
2014-Oct-23 22:50 177 4 gusting 6 27.8
2014-Oct-23 22:40 197 6 gusting 8 27.8
2014-Oct-23 22:30 171 8 gusting 8 27.8
2014-Oct-23 22:20 188 5 gusting 12 27.8
2014-Oct-23 22:10 199 7 gusting 8 27.8
2014-Oct-23 22:00 175 5 gusting 6 27.2